Preview of NWS' New Version of Forecast
This preview is not operational and should not be used for support decisions.

Regional Weather Roundup (RWR)

Issued by Cleveland, OH (CLE)

                            
000
ASUS41 KCLE 200912
RWRCLE
OHIO REGIONAL WEATHER ROUNDUP
NATIONAL WEATHER SERVICE WILMINGTON, OH
400 AM EST WED FEB 20 2019

NOTE: "FAIR" INDICATES FEW OR NO CLOUDS BELOW 12,000 FEET WITH NO
SIGNIFICANT WEATHER AND/OR OBSTRUCTIONS TO VISIBILITY.

OHZ001>008-015>018-024>027-034-035-043-044-201000-
   NORTHWEST OHIO
  
CITY           SKY/WX    TMP DP  RH WIND       PRES   REMARKS
DEFIANCE       CLOUDY    27  21  78 E10       30.27F WCI  17          
FINDLAY        CLOUDY    30  23  75 E10       30.25F WCI  21          
TOLEDO EXPRESS MOCLDY    28  18  66 E10       30.29F WCI  19          
TOLEDO EXEC    MOCLDY    27  21  78 E9        30.31F WCI  18          
LIMA           LGT SNOW  28  25  88 E9        30.23F FOG     WCI  19  
$$
 
OHZ009>014-019>023-028>033-038-089-201000-
   NORTHEAST OHIO
  
CITY           SKY/WX    TMP DP  RH WIND       PRES   REMARKS
CLE-HOPKINS    CLOUDY    29  16  58 E7        30.34F WCI  22          
CLE-LAKEFRONT  FAIR      28  20  71 NE10      30.33F WCI  19          
CUY CO. ARPT   NOT AVBL                                               
LORAIN-ELYRIA    N/A     27  14  58 E9        30.31F WCI  18          
ASHTABULA      FAIR      24  15  68 E7        30.37F WCI  16          
AKRON-CANTON   CLOUDY    28  14  55 E10       30.30F WCI  19          
WOOSTER        CLOUDY    27  18  69 E8        30.29F WCI  19          
MANSFIELD      CLOUDY    28  19  69 SE9       30.26F WCI  19          
YOUNGSTOWN     CLOUDY    26  14  60 E10       30.33F WCI  16          
$$
 
OHZ042-051>053-060>062-070>072-077>081-201000-
  SOUTHWEST OHIO
  
CITY           SKY/WX    TMP DP  RH WIND       PRES   REMARKS
CINC-COVINGTON FRZ RAIN  32  30  92 E14       30.09F FOG     WCI  22  
CINC-LUNKEN    LGT RAIN  33  30  88 NE10      30.13F FOG     WCI  25  
HAMILTON       FRZ RAIN  33  30  88 E9        30.14F FOG     WCI  25  
DAYTON         FRZ RAIN  31  28  89 E12       30.17F FOG     WCI  22  
WRIGHT-PAT AFB LGTSLEET  31  28  90 E10       30.17F FOG     WCI  22  
DAYTON GENERAL FRZ RAIN  33  30  88 E12       30.13F FOG     WCI  24  
WILMINGTON     FRZ RAIN  30  28  92 E14G21    30.16F FOG     WCI  19  
$$

OHZ036-037-039>041-045>050-054>059-063>069-073>076-082>088-201000-
  CENTRAL AND SOUTHEAST OHIO
  
CITY           SKY/WX    TMP DP  RH WIND       PRES   REMARKS
COLUMBUS       FRZ RAIN  30  28  92 E12       30.25S FOG     WCI  20  
OSU AIRPORT    LGT SNOW  29  27  92 E8        30.23F FOG     WCI  21  
BOLTON FIELD   RAIN      30  29  96 E8        30.24F WCI  22          
RICKENBACK AFB MIX PCPN  30  29  96 E9        30.25F WCI  22          
NEWARK         LGT SNOW  28  25  86 NE7       30.25F FOG     WCI  21  
MARION         LGT SNOW  27  25  92 SE12      30.25F FOG     WCI  17  
LANCASTER      FRZ RAIN  31  30  96 E9        30.25F FOG     WCI  23  
ZANESVILLE     LGT SNOW  29  24  82 E8        30.26F WCI  21          
NEW PHILLY     CLOUDY    29  17  61 E7        30.33F WCI  22          
$$